OE6JVE-13 Weather Reports


time (UTC)temp
C
wind
direction
speed
KPH
gust
KPH
rain 1hr
cm
rain 24hr
cm
rain mn
cm
humidity
%
barometer
mb
20260506175615 18 187 4.8 14.5 0.00 0.00 0.00 55 1001.5
20260506174517 18 180 11.3 19.3 0.00 0.00 0.00 55 1001.3
20260506173527 18 223 4.8 9.7 0.00 0.00 0.00 56 1001.3
20260506172533 18 193 11.3 17.7 0.00 0.00 0.00 56 1001.4
20260506171542 18 206 3.2 9.7 0.00 0.00 0.00 59 1001.3
20260506170549 18 196 3.2 8.0 0.00 0.00 0.00 58 1001.2
20260506165557 18 180 8.0 12.9 0.00 0.00 0.00 58 1001.2
20260506164605 18 197 6.4 11.3 0.00 0.00 0.00 58 1001.5
20260506163613 18 180 4.8 9.7 0.00 0.00 0.00 58 1001.5
20260506162515 18 192 9.7 14.5 0.00 0.00 0.00 57 1001.7
20260506161523 18 225 8.0 17.7 0.00 0.00 0.00 58 1001.8
20260506160531 18 225 12.9 16.1 0.00 0.00 0.00 57 1001.9
20260506155539 18 233 1.6 6.4 0.00 0.00 0.00 59 1001.8
20260506154547 18 215 4.8 11.3 0.00 0.00 0.00 59 1001.9
20260506153555 18 231 4.8 12.9 0.00 0.00 0.00 58 1001.9
20260506152602 18 211 8.0 19.3 0.00 0.00 0.00 58 1001.9
20260506151610 18 189 12.9 19.3 0.00 0.00 0.00 57 1001.9
20260506150618 18 129 9.7 14.5 0.00 0.00 0.00 56 1001.9
20260506145520 18 169 4.8 14.5 0.00 0.00 0.00 55 1002.0
20260506144529 19 222 9.7 14.5 0.00 0.00 0.00 54 1002.0
20260506143536 20 171 8.0 19.3 0.00 0.00 0.00 53 1002.0
20260506142544 21 206 12.9 19.3 0.00 0.00 0.00 51 1002.0
20260506141552 20 231 9.7 17.7 0.00 0.00 0.00 53 1001.9
20260506140600 20 180 9.7 16.1 0.00 0.00 0.00 53 1002.0
20260506135607 20 203 9.7 19.3 0.00 0.00 0.00 52 1002.0
20260506134615 20 191 9.7 19.3 0.00 0.00 0.00 52 1002.1
20260506133518 20 207 11.3 24.1 0.00 0.00 0.00 52 1002.0
20260506132525 21 187 9.7 14.5 0.00 0.00 0.00 51 1001.9
20260506131534 21 178 11.3 19.3 0.00 0.00 0.00 50 1002.0
20260506130541 21 200 11.3 19.3 0.00 0.00 0.00 50 1002.0
20260506125549 21 203 8.0 27.4 0.00 0.00 0.00 50 1002.1
20260506124557 21 186 9.7 19.3 0.00 0.00 0.00 48 1002.2
20260506123605 21 189 12.9 24.1 0.00 0.00 0.00 47 1002.1
20260506122613 20 204 3.2 9.7 0.00 0.00 0.00 51 1002.2
20260506121620 20 207 11.3 22.5 0.00 0.00 0.00 51 1002.3
20260506120522 20 180 11.3 14.5 0.00 0.00 0.00 51 1002.3
20260506115530 20 185 9.7 16.1 0.00 0.00 0.00 51 1002.2
20260506114538 20 224 8.0 12.9 0.00 0.00 0.00 51 1002.3
20260506113546 20 179 8.0 16.1 0.00 0.00 0.00 50 1002.5
20260506112554 21 203 11.3 17.7 0.00 0.00 0.00 48 1002.6
20260506111602 20 294 3.2 8.0 0.00 0.00 0.00 51 1002.6
20260506110610 20 180 9.7 14.5 0.00 0.00 0.00 51 1002.8
20260506105618 20 180 9.7 16.1 0.00 0.00 0.00 50 1002.9
20260506104520 20 201 4.8 9.7 0.00 0.00 0.00 51 1003.0
20260506103528 20 183 6.4 14.5 0.00 0.00 0.00 51 1003.2
20260506102536 20 193 4.8 9.7 0.00 0.00 0.00 52 1003.3
20260506101543 19 243 3.2 14.5 0.00 0.00 0.00 52 1003.5
20260506100552 19 180 9.7 12.9 0.00 0.00 0.00 53 1003.4
20260506095600 19 204 8.0 16.1 0.00 0.00 0.00 52 1003.4
20260506094608 19 196 9.7 14.5 0.00 0.00 0.00 52 1003.4
20260506093615 19 166 9.7 16.1 0.00 0.00 0.00 51 1003.3
20260506092517 20 180 16.1 24.1 0.00 0.00 0.00 51 1003.2
20260506091525 20 165 14.5 27.4 0.00 0.00 0.00 49 1003.1
20260506090533 21 168 8.0 12.9 0.00 0.00 0.00 48 1002.9
20260506085541 20 191 11.3 24.1 0.00 0.00 0.00 48 1003.1
20260506084549 21 185 17.7 29.0 0.00 0.00 0.00 46 1003.0
20260506083556 20 166 9.7 16.1 0.00 0.00 0.00 45 1002.8
20260506082604 21 204 6.4 17.7 0.00 0.00 0.00 42 1003.0
20260506081613 21 188 8.0 19.3 0.00 0.00 0.00 42 1002.9
20260506080620 20 202 19.3 25.7 0.00 0.00 0.00 44 1003.0
20260506072552 18 180 3.2 8.0 0.00 0.00 0.00 59 1002.9
20260506071553 18 195 4.8 9.7 0.00 0.00 0.00 60 1002.9
20260506070602 17 187 3.2 4.8 0.00 0.00 0.00 60 1002.9
20260506061535 15 180 3.2 6.4 0.00 0.00 0.00 75 1003.4
20260506060543 13 180 1.6 4.8 0.00 0.00 0.00 92 1003.4
20260506050525 8 0.0 0.0 0.00 0.00 0.00 93 1003.3
20260506044540 8 0.0 0.0 0.00 0.00 0.00 93 1003.1
20260506043548 8 0.0 0.0 0.00 0.00 0.00 92 1003.0
20260506042556 8 0.0 0.0 0.00 0.00 0.00 92 1003.0
20260506041604 8 0.0 0.0 0.00 0.00 0.00 92 1002.9
20260506040612 8 0.0 0.0 0.00 0.00 0.00 92 1003.0
20260506035620 8 180 0.0 3.2 0.00 0.00 0.00 91 1002.9
20260506034522 7 180 0.0 3.2 0.00 0.00 0.00 91 1002.9
20260506033530 7 0.0 0.0 0.00 0.00 0.00 90 1002.9
20260506032538 8 0.0 0.0 0.00 0.00 0.00 90 1003.0
20260506031546 8 0.0 0.0 0.00 0.00 0.00 90 1002.9
20260506030554 8 0.0 0.0 0.00 0.00 0.00 90 1002.9
20260506025601 8 0.0 0.0 0.00 0.00 0.00 90 1002.9
20260506024609 8 292 0.0 1.6 0.00 0.00 0.00 89 1002.8
20260506023617 8 0.0 0.0 0.00 0.00 0.00 89 1002.8
20260506022520 8 0.0 0.0 0.00 0.00 0.00 89 1002.8
20260506021527 8 0.0 0.0 0.00 0.00 0.00 88 1002.6
20260506020535 8 0.0 0.0 0.00 0.00 0.00 88 1002.6
20260506015543 8 180 0.0 1.6 0.00 0.00 0.00 87 1002.6
20260506014551 8 315 0.0 3.2 0.00 0.00 0.00 87 1002.4
20260506013559 9 0.0 0.0 0.00 0.00 0.00 86 1002.3
20260506012607 9 90 0.0 1.6 0.00 0.00 0.00 86 1002.4
20260506011615 9 0.0 0.0 0.00 0.00 0.00 86 1002.3
20260506010517 10 0.0 0.0 0.00 0.00 0.00 86 1002.2
20260506005525 10 180 0.0 1.6 0.00 0.00 0.00 86 1002.2
20260506004533 10 0.0 0.0 0.00 0.00 0.00 86 1002.3
20260506003545 10 241 0.0 4.8 0.00 0.00 0.00 85 1002.2
20260506002548 10 326 1.6 4.8 0.00 0.00 0.00 84 1002.2
20260506001557 10 270 0.0 1.6 0.00 0.00 0.00 83 1002.2
20260506000605 10 0.0 0.0 0.00 0.00 0.00 83 1002.4
20260505235612 10 0.0 0.0 0.00 0.00 0.00 83 1002.2
20260505234621 10 270 0.0 1.6 0.00 0.00 0.00 82 1002.4
20260505233522 10 247 0.0 1.6 0.00 0.00 0.00 81 1002.4
20260505232530 11 0.0 0.0 0.00 0.00 0.00 81 1002.4
20260505231538 11 300 0.0 1.6 0.00 0.00 0.00 81 1002.5
20260505230546 11 298 0.0 3.2 0.00 0.00 0.00 81 1002.5
20260505225554 11 193 0.0 3.2 0.00 0.00 0.00 80 1002.4
20260505224601 11 206 0.0 1.6 0.00 0.00 0.00 80 1002.4
20260505223609 11 0.0 1.6 0.00 0.00 0.00 80 1002.3
20260505222617 11 211 0.0 1.6 0.00 0.00 0.00 80 1002.4
20260505221520 11 245 0.0 3.2 0.00 0.00 0.00 78 1002.4
20260505220527 12 225 1.6 3.2 0.00 0.00 0.00 73 1002.5
20260505215536 12 0.0 0.0 0.00 0.00 0.00 73 1002.5
20260505214543 12 265 0.0 1.6 0.00 0.00 0.00 73 1002.4
20260505213551 12 242 0.0 3.2 0.00 0.00 0.00 72 1002.3
20260505212559 13 247 0.0 3.2 0.00 0.00 0.00 71 1002.4
20260505211607 13 0.0 0.0 0.00 0.00 0.00 70 1002.5
20260505210615 13 249 4.8 9.7 0.00 0.00 0.00 70 1002.6
20260505205517 14 225 0.0 0.0 0.00 0.00 0.00 67 1002.7
20260505204525 15 291 1.6 4.8 0.00 0.00 0.00 66 1002.5
20260505203533 15 180 4.8 12.9 0.00 0.00 0.00 65 1002.7
20260505202540 15 205 8.0 22.5 0.00 0.00 0.00 65 1002.6
20260505201548 15 245 9.7 14.5 0.00 0.00 0.00 66 1002.6
20260505200557 15 270 9.7 12.9 0.00 0.00 0.00 66 1002.7
20260505195604 15 296 1.6 6.4 0.00 0.00 0.00 66 1002.6
20260505194612 15 254 1.6 8.0 0.00 0.00 0.00 64 1002.7
20260505193620 15 232 3.2 9.7 0.00 0.00 0.00 63 1002.7
20260505192522 16 176 4.8 9.7 0.00 0.00 0.00 63 1002.9
20260505191530 16 219 3.2 4.8 0.00 0.00 0.00 62 1002.9
20260505190538 16 209 1.6 9.7 0.00 0.00 0.00 62 1002.8
20260505185545 16 180 1.6 4.8 0.00 0.00 0.00 61 1002.8
20260505184555 16 201 11.3 19.3 0.00 0.00 0.00 61 1002.8
20260505183602 16 193 9.7 17.7 0.00 0.00 0.00 62 1002.9
20260505182609 16 237 4.8 8.0 0.00 0.00 0.00 61 1002.9
20260505181618 16 159 9.7 14.5 0.00 0.00 0.00 60 1003.0